sat.trackr.live / text

‹ back to catalog

STARLINK-32747

NORAD 62600 · 2025-008P

PAYLOAD ACTIVE UNKNOWN

§ Identity

Operator
Country
US
Launch date
2025-01-13
Launch site
AFETR
Launch vehicle
Mass (kg)
RCS (m²)

Purposes: comms

External: N2YO · Heavens-Above · Gunter

§ Orbital elements

Epoch: 2026-09-21T22:25:26.715072Z

Period
94.27 min
Inclination
43.0020°
Eccentricity
0.0001959
Mean motion
15.27582233 rev/d
Perigee alt
481.7 km
Apogee alt
484.4 km
Semi-major
6,861.2 km
B*
4.1795e-4
RAAN
249.9695°
Arg perigee
272.0629°
Mean anomaly
87.9998°
Rev number
9,557

§ Raw data

STARLINK-327471 62600U 25008P   26264.93433698  .00011257  00000+0  41795-3 0  99982 62600  43.0020 249.9695 0001959 272.0629  87.9998 15.27582233 95575

JSON: /api/v1/satellites/62600 · /tle

For live sub-satellite position, see the globe view (requires WebGL).

§ Visibility from observer

Set your observer location to see the next 7 days of passes ≥ 10°. The values pass through the URL so the page stays shareable.

No JS? Fill the form by hand. The geolocation button needs JavaScript.